Sarasota, FL

5:12 AM EST on December 09, 2019 (GMT -0500)
Sarasota-bradenton

Weather History for KSRQ - October, 2019

Change the Weather History Date:

Saturday, October 5, 2019

  Actual Average Record
Temperature  
Mean Temperature 84 °F 79 °F  
Max Temperature 93 °F 87 °F 93 °F (1959)
Min Temperature 75 °F 71 °F 56 °F (1929)
Degree Days  
Heating Degree Days 0 0  
Month to date heating degree days 0 0  
Since 1 July heating degree days 0 0  
Cooling Degree Days 20 14  
Month to date cooling degree days 95 72  
Year to date cooling degree days 3552 2861  
Growing Degree Days 34 (Base 50)    
Moisture  
Dew Point 72 °F    
Average Humidity 72    
Maximum Humidity 94    
Minimum Humidity 46    
Precipitation  
Precipitation 0.00 in 0.12 in 2.86 in (1995)
Month to date precipitation T 0.66  
Year to date precipitation 43.38 46.09  
Sea Level Pressure  
Sea Level Pressure 29.94 in    
Wind  
Wind Speed 8 mph ()    
Max Wind Speed 21 mph    
Max Gust Speed 26 mph    
Visibility 10.0 miles    
Events      
T = Trace of Precipitation, MM = Missing Value Source: Averaged Metar Reports

Daily Weather History Graph

Daily Weather History Graph

Search for Another Location

Airport or City:

Astronomy

Oct. 05, 2019 Rise Set
Actual Time 7:24 AM EDT 7:12 PM EDT
Civil Twilight 7:01 AM EDT 7:35 PM EDT
Nautical Twilight 6:34 AM EDT 8:02 PM EDT
Astronomical Twilight 6:07 AM EDT 8:29 PM EDT
Moon 2:21 PM EDT (10/5) 12:09 AM EDT (10/5)
Length of Visible Light 12h 34m
Length of Day
11h 47m
Waxing Crescent, 50% of the Moon is Illuminated
Oct 5
Waxing Crescent
Oct 5
First Quarter
Oct 13
Full
Oct 21
Last Quarter
Oct 27
New

Hourly Weather History & Observations

Time (EDT) Temp. Heat Index Dew Point Humidity Pressure Visibility Wind Dir Wind Speed Gust Speed Precip Events Conditions
12:53 AM 79.0 °F - 73.0 °F 82% 29.96 in 10.0 mi East 5.8 mph - N/A   Partly Cloudy
1:53 AM 79.0 °F - 73.0 °F 82% 29.94 in 10.0 mi East 6.9 mph - N/A   Mostly Cloudy
2:53 AM 78.1 °F - 73.0 °F 84% 29.94 in 10.0 mi East 6.9 mph - N/A   Clear
3:53 AM 77.0 °F - 73.0 °F 88% 29.92 in 10.0 mi East 6.9 mph - N/A   Clear
4:53 AM 75.9 °F - 73.0 °F 91% 29.91 in 10.0 mi East 6.9 mph - N/A   Clear
5:53 AM 75.9 °F - 73.0 °F 91% 29.93 in 10.0 mi East 5.8 mph - N/A   Clear
6:53 AM 75.9 °F - 73.0 °F 91% 29.94 in 10.0 mi East 5.8 mph - N/A   Clear
7:53 AM 75.9 °F - 73.0 °F 91% 29.95 in 10.0 mi East 5.8 mph - N/A   Clear
8:53 AM 80.1 °F 85.1 °F 75.0 °F 85% 29.97 in 10.0 mi East 8.1 mph - N/A   Clear
9:53 AM 82.9 °F 89.4 °F 73.9 °F 74% 29.99 in 10.0 mi ENE 9.2 mph - N/A   Scattered Clouds
10:53 AM 87.1 °F 93.6 °F 72.0 °F 61% 29.99 in 10.0 mi ENE 11.5 mph - N/A   Scattered Clouds
11:53 AM 89.1 °F 96.0 °F 72.0 °F 57% 29.99 in 10.0 mi East 12.7 mph - N/A   Scattered Clouds
12:53 PM 90.0 °F 95.4 °F 70.0 °F 52% 29.95 in 10.0 mi East 9.2 mph - N/A   Partly Cloudy
1:53 PM 93.0 °F 99.0 °F 70.0 °F 47% 29.92 in 10.0 mi NE 10.4 mph - N/A   Mostly Cloudy
2:53 PM 89.1 °F 96.0 °F 72.0 °F 57% 29.91 in 9.0 mi East 18.4 mph 26.5 mph N/A   Mostly Cloudy
3:53 PM 88.0 °F 92.1 °F 69.1 °F 53% 29.89 in 10.0 mi East 15.0 mph 21.9 mph N/A   Overcast
4:53 PM 87.1 °F 94.5 °F 73.0 °F 63% 29.89 in 10.0 mi East 10.4 mph - N/A   Partly Cloudy
5:53 PM 88.0 °F 93.8 °F 71.1 °F 57% 29.89 in 10.0 mi East 18.4 mph - N/A   Scattered Clouds
6:53 PM 84.9 °F 88.2 °F 68.0 °F 57% 29.91 in 10.0 mi East 11.5 mph - N/A   Clear
7:53 PM 82.9 °F 87.0 °F 70.0 °F 65% 29.92 in 10.0 mi East 10.4 mph - N/A   Clear
8:53 PM 81.0 °F 84.9 °F 71.1 °F 72% 29.94 in 10.0 mi East 8.1 mph - N/A   Clear
9:53 PM 80.1 °F 83.8 °F 72.0 °F 76% 29.95 in 10.0 mi East 10.4 mph - N/A   Clear
10:53 PM 79.0 °F - 72.0 °F 79% 29.96 in 10.0 mi East 9.2 mph - N/A   Clear
11:53 PM 79.0 °F - 72.0 °F 79% 29.96 in 10.0 mi East 8.1 mph - N/A   Clear